{"data":{"norad_id":59720,"intl_designator":"2024-088N","name":"STARLINK-11095 [DTC]","alt_names":[],"object_type":"PAYLOAD","status":"ACTIVE","operator":null,"country":"US","launch_date":"2024-05-10","launch_site_code":"AFWTR","launch_vehicle":null,"mission":null,"orbit_class":"UNKNOWN","rcs_meters":null,"size_class":null,"mass_kg":null,"dimensions":null,"purposes":["comms"],"wikipedia_slug":null,"has_3d_model":false,"image_url":null,"decayed_at":null,"tle_current":{"epoch":"2026-09-21T21:43:13.129248Z","epoch_age_seconds":49815,"freshness":"FRESH","line1":"1 59720U 24088N   26264.90501307  .00000029  00000+0  50937-5 0  9999","line2":"2 59720  53.1603  78.7345 0000963  75.4438 284.6687 15.69709496137093","mean_motion":15.69709496,"eccentricity":9.63e-5,"inclination_deg":53.1603,"raan_deg":78.7345,"arg_perigee_deg":75.4438,"mean_anomaly_deg":284.6687,"bstar":5.0937e-6,"rev_number":13709,"period_min":91.736719671345,"perigee_km":359.07933625719,"apogee_km":360.3770490933,"semimajor_km":6737.8651926752,"source":"CELESTRAK","updated_at":"2026-09-22T09:00:49.059743Z"}}}